Weather History for Jaipur / Sanganer, India

Change the Weather History Date:

Sunday, January 6, 2013

  Actual Average Record
Temperature  
Mean Temperature 52 °F -  
Max Temperature 67 °F - - ()
Min Temperature 37 °F - - ()
Degree Days  
Heating Degree Days 13    
Growing Degree Days 2 (Base 50)    
Moisture  
Dew Point 33 °F    
Average Humidity 55    
Maximum Humidity 87    
Minimum Humidity 13    
Precipitation  
Precipitation 0.00 in - - ()
Sea Level Pressure  
Sea Level Pressure 30.04 in    
Wind  
Wind Speed 8 mph ()    
Max Wind Speed 108 mph    
Max Gust Speed -    
Visibility 1.3 miles    
Events      
T = Trace of Precipitation, MM = Missing Value Source: Averaged Metar Reports

Daily Weather History Graph

Daily Weather History Graph

Search for Another Location

Airport:

Trip Planner

Search our weather history database for the weather conditions in past years. The results will help you decide how hot, cold, wet, or windy it might be!

Date:

Astronomy

Jan. 06, 2013 Rise Set
Actual Time 7:16 AM IST 5:48 PM IST
Civil Twilight 6:51 AM IST 6:13 PM IST
Nautical Twilight 6:22 AM IST 6:42 PM IST
Astronomical Twilight 5:54 AM IST 7:10 PM IST
Moon 1:14 AM IST (1/6) 12:45 PM IST (1/6)
Length of Visible Light 11h 22m
Length of Day
10h 31m
Last Quarter, 38% of the Moon is Illuminated
Jan 6
Last Quarter
Jan 12
New
Jan 19
First Quarter
Jan 27
Full
Feb 3
Last Quarter

Hourly Weather History & Observations

Time (IST) Temp. Windchill Dew Point Humidity Pressure Visibility Wind Dir Wind Speed Gust Speed Precip Events Conditions
12:00 AM 44.6 °F - 37.4 °F 76% 29.98 in 1.2 mi Calm Calm - N/A   Smoke
1:00 AM 44.6 °F - 33.8 °F 66% 30.01 in 1.2 mi Calm Calm - N/A   Smoke
2:00 AM 44.6 °F 43.1 °F 33.8 °F 66% 30.01 in 1.2 mi East 3.5 mph - N/A   Smoke
2:30 AM 41 °F - 34 °F 68% 30.03 in 1 mi 108.2 mph - -   Smoke
3:00 AM 42.8 °F - 35.6 °F 76% 30.01 in 1.2 mi Variable 1.2 mph - N/A   Smoke
4:00 AM 42.8 °F - 33.8 °F 70% 30.01 in 1.6 mi Calm Calm - N/A   Haze
5:00 AM 41.0 °F - 33.8 °F 76% 30.01 in 1.6 mi Variable 2.3 mph - N/A   Haze
5:30 AM 41.0 °F 39.0 °F 33.8 °F 76% 30.01 in 1.6 mi Variable 3.5 mph - N/A   Mist
6:30 AM 39.2 °F - 33.8 °F 81% 30.04 in 1.1 mi Variable 2.3 mph - N/A   Mist
7:00 AM 39.2 °F - 35.6 °F 87% 30.04 in 0.7 mi Calm Calm - N/A   Mist
8:00 AM 41.0 °F 38.0 °F 33.8 °F 76% 30.04 in 0.7 mi SSE 4.6 mph - N/A   Mist
8:30 AM 42 °F - 35 °F 70% 30.08 in 1 mi ESE 3.5 mph - -   Mist
8:30 AM 42.8 °F 41.1 °F 35.6 °F 76% 30.06 in 0.7 mi ESE 3.5 mph - N/A   Mist
9:00 AM 48.2 °F - 35.6 °F 62% 30.06 in 0.7 mi East 4.6 mph - N/A   Mist
10:00 AM 53.6 °F - 35.6 °F 51% 30.09 in 0.9 mi Variable 2.3 mph - N/A   Mist
11:00 AM 57.2 °F - 32.0 °F 38% 30.09 in 1.2 mi South 4.6 mph - N/A   Smoke
11:30 AM 59.0 °F - 35.6 °F 42% 30.09 in 1.2 mi SW 5.8 mph - N/A   Smoke
12:00 PM 59.0 °F - 33.8 °F 39% 30.09 in 1.6 mi WSW 6.9 mph - N/A   Smoke
2:00 PM 64.4 °F - 28.4 °F 26% 30.04 in 2.5 mi Variable 6.9 mph - N/A   Haze
2:30 PM 65 °F - 26 °F 13% 29.99 in 2 mi WNW 5.8 mph - -   Haze
3:00 PM 64.4 °F - 24.8 °F 22% 30.01 in 2.5 mi Variable 4.6 mph - N/A   Haze
4:00 PM 64.4 °F - 19.4 °F 18% 30.01 in 2.5 mi Variable 4.6 mph - N/A   Haze
5:30 PM 62 °F - 24 °F 13% 29.99 in 2 mi WNW 4.6 mph - -   Haze
7:00 PM 57.2 °F - 24.8 °F 29% 30.01 in 1.2 mi West 4.6 mph - N/A   Smoke
8:30 PM 53 °F - 38 °F 45% 30.04 in 1 mi ENE 6.9 mph - -   Smoke
9:00 PM 51.8 °F - 39.2 °F 62% 30.06 in 0.9 mi ENE 5.8 mph - N/A   Smoke
10:00 PM 51.8 °F - 39.2 °F 62% 30.06 in 0.9 mi ENE 5.8 mph - N/A   Smoke
11:00 PM 50.0 °F - 37.4 °F 62% 30.06 in 0.9 mi NNE 4.6 mph - N/A   Smoke
11:30 PM 50.0 °F - 35.6 °F 58% 30.06 in 0.9 mi Variable 3.5 mph - N/A   Smoke